| time (UTC) | temp C | wind direction | speed KPH | gust KPH | rain 1hr cm | rain 24hr cm | rain mn cm | humidity % | barometer mb |
| 20260505041508 | 11 | 225 | 4.8 | 9.7 | 0.00 | 0.00 | 0.00 | 72 | 1010.7 |
| 20260505034508 | 12 | 242 | 4.8 | 16.1 | 0.00 | 0.00 | 0.00 | 70 | 1010.7 |
| 20260505033009 | 12 | 220 | 4.8 | 14.5 | 0.00 | 0.00 | 0.00 | 69 | 1010.7 |
| 20260505031507 | 12 | 213 | 3.2 | 9.7 | 0.00 | 0.00 | 0.00 | 68 | 1010.8 |
| 20260505024507 | 12 | 211 | 1.6 | 9.7 | 0.00 | 0.00 | 0.00 | 65 | 1010.9 |
| 20260505023006 | 13 | 200 | 3.2 | 12.9 | 0.00 | 0.00 | 0.00 | 64 | 1010.9 |
| 20260505021511 | 13 | 210 | 4.8 | 14.5 | 0.00 | 0.00 | 0.00 | 62 | 1011.0 |
| 20260505020017 | 13 | 214 | 3.2 | 14.5 | 0.00 | 0.00 | 0.00 | 60 | 1011.0 |
| 20260505014514 | 13 | 232 | 4.8 | 16.1 | 0.00 | 0.00 | 0.00 | 59 | 1011.0 |
| 20260505013011 | 13 | 198 | 3.2 | 14.5 | 0.00 | 0.00 | 0.00 | 57 | 1010.9 |
| 20260505011516 | 14 | 240 | 3.2 | 12.9 | 0.00 | 0.00 | 0.00 | 55 | 1010.6 |
| 20260505010012 | 14 | 214 | 4.8 | 20.9 | 0.00 | 0.00 | 0.00 | 54 | 1010.2 |
| 20260505004509 | 14 | 203 | 4.8 | 16.1 | 0.00 | 0.00 | 0.00 | 53 | 1010.1 |
| 20260505003011 | 15 | 215 | 4.8 | 14.5 | 0.00 | 0.00 | 0.00 | 53 | 1009.8 |
| 20260505001509 | 15 | 192 | 4.8 | 14.5 | 0.00 | 0.00 | 0.00 | 51 | 1009.3 |
| 20260504234508 | 16 | 206 | 4.8 | 22.5 | 0.00 | 0.00 | 0.00 | 45 | 1008.8 |
| 20260504233007 | 17 | 212 | 6.4 | 22.5 | 0.00 | 0.00 | 0.00 | 44 | 1008.5 |
| 20260504231507 | 17 | 238 | 8.0 | 24.1 | 0.00 | 0.00 | 0.00 | 43 | 1008.2 |
| 20260504230010 | 17 | 220 | 8.0 | 29.0 | 0.00 | 0.00 | 0.00 | 43 | 1008.0 |
| 20260504224508 | 18 | 202 | 6.4 | 17.7 | 0.00 | 0.00 | 0.00 | 42 | 1007.8 |
| 20260504223008 | 18 | 286 | 6.4 | 25.7 | 0.00 | 0.00 | 0.00 | 41 | 1007.7 |
| 20260504221507 | 19 | 262 | 6.4 | 27.4 | 0.00 | 0.00 | 0.00 | 40 | 1007.6 |
| 20260504220011 | 20 | 161 | 8.0 | 37.0 | 0.00 | 0.00 | 0.00 | 38 | 1007.6 |
| 20260504214507 | 20 | 194 | 6.4 | 22.5 | 0.00 | 0.00 | 0.00 | 36 | 1007.4 |
| 20260504213008 | 21 | 242 | 6.4 | 29.0 | 0.00 | 0.00 | 0.00 | 35 | 1007.3 |
| 20260504211507 | 21 | 248 | 6.4 | 16.1 | 0.00 | 0.00 | 0.00 | 32 | 1007.2 |
| 20260504210010 | 22 | 197 | 4.8 | 22.5 | 0.00 | 0.00 | 0.00 | 29 | 1007.2 |
| 20260504204507 | 21 | 193 | 4.8 | 14.5 | 0.00 | 0.00 | 0.00 | 32 | 1007.2 |
| 20260504203007 | 21 | 236 | 6.4 | 17.7 | 0.00 | 0.00 | 0.00 | 31 | 1007.2 |
| 20260504201507 | 21 | 267 | 4.8 | 22.5 | 0.00 | 0.00 | 0.00 | 29 | 1007.2 |
| 20260504200012 | 21 | 208 | 6.4 | 16.1 | 0.00 | 0.00 | 0.00 | 29 | 1007.4 |
| 20260504194507 | 21 | 233 | 8.0 | 22.5 | 0.00 | 0.00 | 0.00 | 30 | 1007.3 |
| 20260504193007 | 21 | 257 | 6.4 | 14.5 | 0.00 | 0.00 | 0.00 | 29 | 1007.3 |
| 20260504191508 | 21 | 215 | 6.4 | 19.3 | 0.00 | 0.00 | 0.00 | 29 | 1007.2 |
| 20260504190010 | 21 | 263 | 6.4 | 22.5 | 0.00 | 0.00 | 0.00 | 30 | 1007.3 |
| 20260504184507 | 21 | 275 | 6.4 | 17.7 | 0.00 | 0.00 | 0.00 | 29 | 1007.8 |
| 20260504183007 | 21 | 190 | 6.4 | 20.9 | 0.00 | 0.00 | 0.00 | 32 | 1007.7 |
| 20260504181507 | 21 | 183 | 6.4 | 22.5 | 0.00 | 0.00 | 0.00 | 29 | 1007.9 |
| 20260504180010 | 21 | 211 | 8.0 | 24.1 | 0.00 | 0.00 | 0.00 | 28 | 1007.9 |
| 20260504174507 | 20 | 207 | 8.0 | 22.5 | 0.00 | 0.00 | 0.00 | 29 | 1008.0 |
| 20260504173008 | 20 | 254 | 9.7 | 33.8 | 0.00 | 0.00 | 0.00 | 29 | 1008.2 |
| 20260504081506 | 7 | 240 | 0.0 | 0.0 | 0.00 | 0.00 | 0.00 | 56 | 1010.5 |
| 20260504050009 | 6 | 261 | 0.0 | 3.2 | 0.00 | 0.00 | 0.00 | 57 | 1010.3 |